GFSNE_sfc_thetae_000.txt.gz
Theta_e
278 279 278 279 279 279 279 278 276 272 274 277 277 281 281 281 281 281 280 282 285 286 287 288 289 291 292 294 296 298 300 301 303 304 308 312 315 316
278 277 277 277 277 276 277 276 276 272 270 276 276 277 278 278 279 278 278 280 281 283 284 285 286 288 290 292 293 295 296 298 299 302 304 310 312 315
275 275 275 275 274 274 274 274 273 273 269 273 275 275 275 275 276 276 276 276 276 280 282 284 285 286 288 289 290 292 293 295 297 299 301 305 308 310
274 273 272 274 272 272 272 271 271 272 270 268 272 272 272 273 274 273 275 276 276 279 282 283 285 286 287 289 290 291 292 293 294 295 297 300 303 307
273 272 272 271 271 271 270 270 270 271 271 269 269 271 272 273 273 274 274 275 277 279 282 282 283 284 286 287 288 289 290 292 293 295 296 296 298 304
273 272 272 271 271 271 270 270 270 268 269 269 269 269 271 273 274 273 273 276 276 278 280 280 282 283 284 286 287 288 290 290 290 294 296 296 297 301
272 272 272 272 273 273 270 269 269 268 268 268 269 270 271 273 273 274 273 273 274 276 276 277 279 280 282 284 284 286 287 288 290 292 293 296 296 297
271 271 272 272 273 275 276 277 276 272 271 271 272 272 272 272 274 274 273 272 270 276 274 274 277 276 279 280 284 285 286 287 289 292 293 294 296 296
272 272 272 272 272 272 274 276 277 278 278 275 273 273 273 274 274 273 273 272 271 274 275 272 276 275 278 279 283 284 286 287 289 291 292 294 296 296
272 272 271 272 273 273 273 272 273 274 275 276 275 275 276 276 276 276 275 274 275 276 276 271 275 274 277 278 283 284 286 287 289 290 291 293 296 297
273 273 272 272 274 276 274 272 273 274 278 278 278 279 279 279 278 274 270 269 268 271 275 274 274 275 277 277 280 284 286 287 288 289 290 292 295 296
272 273 275 273 276 277 273 273 272 273 272 272 274 271 273 271 274 272 270 267 268 268 274 273 274 275 272 277 279 280 281 284 287 287 291 292 295 295
270 270 273 275 276 277 278 273 271 273 273 267 267 267 268 269 270 271 272 270 268 268 274 274 274 274 274 274 277 279 280 281 283 284 287 292 295 294
269 272 272 274 276 276 275 274 275 274 264 264 264 265 266 267 269 271 272 272 272 271 272 273 270 272 273 274 273 278 279 281 281 281 284 288 291 294
271 273 274 273 273 271 271 272 270 265 263 262 263 265 267 269 270 269 271 271 271 272 273 273 273 273 274 273 274 276 277 279 281 281 282 286 287 289
272 266 268 268 268 268 266 267 266 265 265 264 264 266 267 267 266 268 268 268 268 268 272 273 273 273 271 273 275 276 278 276 280 280 281 285 287 289
260 258 259 262 262 263 263 263 264 264 264 264 264 264 265 266 266 268 269 268 266 265 266 268 271 272 273 273 272 277 278 278 279 279 280 281 285 287
256 254 257 260 260 261 261 261 262 263 263 264 263 263 264 264 264 266 268 267 265 265 265 266 267 267 268 271 277 276 280 279 280 280 281 282 283 286
254 254 255 257 258 259 259 260 260 261 263 262 263 262 263 263 264 265 267 266 265 265 265 266 265 265 262 262 270 279 280 281 281 281 282 283 282 285
253 251 252 253 255 257 257 258 258 259 260 261 261 261 262 263 263 265 265 264 264 264 264 265 265 265 263 263 265 271 278 280 281 281 282 284 286 288
252 252 251 253 254 254 254 254 254 256 258 258 259 260 262 262 264 265 265 265 265 264 262 263 266 269 268 268 265 267 272 280 283 284 285 284 284 285
255 252 252 250 250 250 249 250 253 255 256 258 259 261 262 263 264 264 264 264 264 264 263 265 267 267 266 265 264 266 269 274 281 286 287 287 285 283
254 252 250 249 248 248 247 248 251 254 256 258 259 261 262 264 264 265 264 264 264 263 264 263 264 265 265 266 266 266 268 271 277 281 286 287 287 287

GFSNE_sfc_thetae_003.txt.gz
Theta_e
278 278 278 278 279 279 279 279 276 272 274 277 277 281 280 280 280 280 280 282 284 285 286 287 288 289 290 292 293 294 296 298 299 300 301 302 304 306
278 278 278 277 277 277 277 277 276 273 270 275 276 277 278 278 279 278 278 280 281 282 284 285 286 287 289 290 291 293 294 296 297 298 299 301 302 303
277 277 276 276 274 274 274 274 274 274 270 273 275 275 275 275 276 276 277 276 277 280 282 284 285 287 288 288 289 291 292 294 295 296 297 299 300 302
275 275 273 274 272 272 272 272 272 272 271 269 272 273 273 274 274 274 275 277 277 279 283 285 285 285 286 287 288 289 290 292 293 294 296 297 298 300
275 274 272 272 270 270 270 270 271 271 271 270 269 272 272 274 273 275 276 277 278 281 282 282 283 284 285 286 287 287 288 289 290 291 292 294 295 296
275 274 272 271 271 270 270 270 270 269 269 269 269 270 272 274 275 274 274 276 276 278 280 280 282 282 283 284 285 285 286 288 289 291 292 292 292 294
272 272 272 272 274 273 270 269 269 267 267 267 269 271 272 273 272 274 273 274 275 276 276 277 277 277 278 281 281 282 284 285 287 288 289 290 291 294
271 271 272 273 274 276 276 275 272 266 266 267 271 272 272 273 274 273 273 272 270 277 275 275 277 276 277 278 281 283 284 285 286 287 289 290 291 292
271 271 272 272 272 273 276 278 278 279 279 275 272 273 273 274 274 273 273 273 273 276 275 272 277 276 278 279 282 283 284 285 286 287 287 290 291 291
272 272 272 272 272 272 272 272 273 273 274 274 274 274 275 276 276 276 275 272 272 273 274 269 273 273 275 277 281 283 284 285 285 286 287 289 291 291
273 273 272 272 274 276 273 270 271 273 277 279 280 280 280 280 279 273 267 266 266 268 272 270 270 271 274 275 277 282 283 285 285 286 288 289 290 290
272 273 274 273 275 277 273 268 267 272 274 269 273 274 273 272 274 272 268 265 265 265 272 269 269 270 269 273 275 278 279 283 284 285 286 287 289 287
271 271 273 277 277 278 277 273 273 273 269 265 266 267 268 269 269 270 270 269 267 267 271 271 269 269 269 268 271 273 276 279 280 281 285 286 286 287
270 271 272 277 277 277 277 276 276 274 260 259 260 263 265 267 269 270 271 271 271 270 272 272 269 269 268 267 267 271 273 275 278 279 280 283 285 287
272 273 275 276 277 275 273 272 270 264 260 258 261 264 267 268 270 269 270 270 270 271 273 273 271 271 270 268 267 269 272 275 277 278 279 280 281 282
275 275 274 271 271 270 268 268 266 266 265 263 263 265 267 266 266 267 266 267 266 267 271 273 273 271 268 268 268 266 269 268 272 274 277 279 281 282
267 266 264 265 264 265 264 264 264 265 264 264 263 263 264 264 265 266 266 265 264 264 267 270 271 271 270 269 266 267 267 269 271 273 276 278 280 281
265 263 263 263 263 263 262 262 262 263 263 263 262 262 262 263 263 264 264 264 263 265 266 267 268 267 267 267 271 267 268 268 270 272 275 275 278 281
264 263 263 262 262 262 261 261 260 261 262 262 261 261 261 261 261 262 263 263 264 265 266 267 266 265 262 260 265 272 267 268 269 269 276 277 278 280
263 262 260 259 259 259 259 259 259 259 259 260 259 258 258 259 260 261 262 262 263 264 264 266 266 265 263 262 262 266 271 268 268 268 271 275 283 285
260 259 259 258 258 257 256 255 253 252 255 255 253 255 258 258 260 261 262 263 263 263 262 264 266 269 268 267 264 264 267 272 272 269 270 272 273 281
259 258 256 256 255 254 251 249 247 250 253 253 253 256 258 259 260 261 262 263 262 263 263 265 267 267 266 264 263 263 264 267 271 273 275 276 275 275
258 257 255 254 252 249 248 247 248 251 253 251 253 256 258 258 260 261 263 263 262 262 263 263 265 266 265 264 264 263 263 264 266 267 270 275 279 280

GFSNE_sfc_thetae_006.txt.gz
Theta_e
278 278 278 278 279 279 279 279 276 273 274 276 277 280 279 278 279 278 278 280 283 284 285 286 288 289 290 291 292 294 295 296 297 298 299 300 301 301
278 278 278 278 278 278 279 278 277 274 272 275 277 277 277 277 278 277 277 280 280 282 284 285 287 288 289 290 291 292 293 294 295 296 297 298 299 300
278 278 277 278 277 276 276 275 275 275 272 273 275 275 275 274 275 276 276 276 277 281 283 285 287 287 287 288 289 290 291 292 293 294 295 296 298 299
277 277 276 276 274 274 274 273 273 274 272 270 272 272 273 273 274 274 275 277 277 280 283 285 285 285 286 287 287 288 288 289 290 291 292 293 295 296
277 276 275 274 272 272 272 271 271 273 271 270 270 272 272 273 273 275 275 276 278 280 282 282 283 284 284 285 286 286 286 286 287 288 289 291 292 294
277 276 274 274 273 271 271 271 271 270 270 270 270 270 271 274 274 274 274 276 275 277 279 280 281 282 283 284 284 283 284 284 285 286 287 288 289 291
275 275 274 274 276 274 271 270 270 268 268 268 269 270 272 273 273 274 273 274 275 277 277 277 278 278 279 281 281 282 283 284 285 286 286 287 288 289
274 274 273 274 277 278 277 276 272 266 262 264 271 271 273 273 274 273 273 272 271 277 275 274 275 275 276 278 281 283 284 285 285 286 286 286 287 288
274 273 272 273 274 275 278 277 277 277 274 272 272 273 273 273 274 273 274 274 273 274 272 270 273 272 275 276 280 281 282 283 283 284 285 286 287 288
274 274 273 272 273 274 275 275 275 275 275 275 274 274 274 275 275 276 275 271 271 272 273 268 272 271 273 274 279 280 281 281 282 284 285 286 286 288
274 274 274 273 275 277 273 271 272 273 276 278 279 280 280 279 278 271 264 262 264 268 271 269 270 271 272 272 274 279 279 281 281 282 283 285 286 287
273 274 276 274 277 278 272 270 268 271 273 271 273 274 274 272 274 272 266 259 264 262 272 269 269 269 268 271 273 273 273 276 278 279 280 281 282 282
272 272 273 278 278 280 277 272 271 273 272 268 268 268 269 269 269 270 271 269 265 265 271 271 268 268 267 267 270 272 272 273 273 275 277 279 280 282
272 273 273 278 279 280 279 277 278 271 263 261 260 263 266 267 268 270 270 271 271 270 272 271 268 268 266 266 267 271 272 273 273 272 274 277 280 281
274 274 276 279 279 279 280 279 273 266 263 258 261 264 266 268 269 269 269 269 269 270 271 271 269 269 269 267 267 269 270 270 271 271 271 271 272 274
275 275 276 278 279 273 275 274 269 267 265 264 264 266 267 266 266 267 265 266 264 265 269 270 270 270 268 269 269 267 269 267 270 270 270 271 272 274
273 273 274 271 269 267 267 266 266 266 265 264 264 264 264 264 264 266 265 264 262 262 264 266 269 271 271 270 266 267 267 267 269 269 269 268 270 271
272 271 269 268 267 266 265 264 265 265 265 265 264 263 263 262 262 263 263 262 261 262 263 264 266 266 266 268 272 267 268 268 269 269 269 267 268 271
270 268 267 266 266 266 265 264 264 264 264 263 263 262 262 261 261 261 261 262 261 262 262 264 264 263 261 260 267 273 268 268 268 267 268 268 267 269
268 267 266 265 265 264 263 263 263 262 262 261 261 259 257 257 257 258 259 259 260 261 262 263 263 263 263 262 262 266 272 268 268 267 267 269 270 273
267 266 265 264 263 263 262 261 260 259 258 257 256 254 255 255 256 257 259 260 261 261 261 262 264 267 266 266 263 264 267 272 271 269 268 267 266 267
266 264 263 262 261 260 259 257 256 255 254 254 252 253 254 255 257 257 259 259 259 262 262 263 265 264 264 263 262 263 265 267 270 271 272 271 266 263
264 262 260 260 258 257 256 254 254 255 253 252 252 251 253 254 256 258 258 259 261 262 262 261 262 263 263 263 263 263 264 265 266 265 266 270 271 272

GFSNE_sfc_thetae_009.txt.gz
Theta_e
284 284 284 283 284 284 284 284 285 280 279 281 282 283 283 282 281 281 280 280 283 284 286 287 288 290 291 291 292 293 294 295 295 296 297 298 299 301
283 283 283 283 283 283 283 283 282 283 281 280 281 282 281 280 280 280 279 280 280 282 284 286 287 289 289 290 290 291 292 293 294 294 295 296 297 298
282 282 281 282 282 281 282 282 281 280 280 277 279 279 278 278 278 279 279 280 281 281 283 285 286 286 287 288 288 289 290 290 291 292 293 293 294 296
281 280 280 280 280 280 280 280 279 279 278 277 276 277 277 277 277 277 278 279 280 281 283 285 285 285 286 286 287 287 288 288 288 289 290 291 292 293
281 280 280 279 279 279 278 278 277 277 277 276 275 275 276 277 277 278 278 279 279 281 282 282 283 284 285 285 286 286 285 286 286 287 288 289 290 291
281 281 280 279 278 278 277 276 276 276 275 274 273 273 274 276 276 276 277 278 278 279 280 281 281 282 283 284 284 283 284 285 286 287 288 288 289 289
280 280 279 279 281 279 277 275 275 274 274 273 272 273 274 274 275 277 275 277 278 279 279 280 279 279 279 280 280 281 283 284 285 285 286 286 287 287
278 279 279 278 280 281 280 279 276 273 271 272 273 272 274 275 276 275 275 275 275 280 277 276 277 277 278 279 280 282 283 283 284 284 285 286 286 286
279 278 276 277 278 279 281 280 279 279 276 274 274 275 275 276 276 275 275 275 275 277 274 273 277 276 278 278 280 281 282 283 283 283 284 284 285 285
279 278 277 276 277 277 278 277 277 277 276 276 277 277 277 277 277 277 276 274 273 273 274 271 275 275 277 277 279 281 281 282 282 282 282 282 283 283
278 278 277 276 278 280 277 276 275 275 279 280 280 279 279 280 280 275 272 270 269 271 273 272 273 273 274 275 277 279 280 280 280 280 281 281 281 281
277 276 278 277 280 281 276 276 274 275 276 277 278 279 280 277 277 275 272 268 268 267 273 271 271 272 269 274 276 276 276 278 279 279 280 280 280 278
276 275 276 280 280 282 279 275 275 276 276 274 275 274 273 273 272 273 273 271 268 268 272 272 271 270 269 269 272 274 275 276 276 276 278 279 279 279
275 276 275 280 281 282 279 276 278 276 274 272 271 270 270 270 271 272 272 272 272 271 272 272 270 269 268 267 267 272 274 274 275 276 276 277 278 278
277 277 277 280 281 282 281 278 277 272 271 268 268 269 270 270 271 270 270 270 270 270 271 271 270 270 269 268 267 269 270 273 274 274 275 275 274 274
278 277 277 279 280 280 279 279 274 272 270 270 269 269 269 268 268 269 267 268 267 267 269 270 270 270 269 269 269 268 271 269 272 273 273 273 274 274
275 275 275 276 276 276 275 271 270 269 268 268 267 266 267 267 267 267 267 266 264 264 265 267 269 270 270 269 267 268 269 269 272 272 272 271 273 273
273 273 273 275 271 272 270 268 268 267 268 267 266 266 265 266 265 266 265 264 263 264 264 266 266 266 267 268 271 268 269 270 271 272 271 269 269 272
273 273 273 273 271 271 269 268 266 267 267 267 266 265 264 264 263 263 264 264 263 263 264 265 264 264 262 261 267 271 268 269 269 268 270 270 269 271
274 273 272 271 269 268 268 267 266 266 266 265 265 264 263 262 261 262 262 261 261 262 262 263 264 265 263 263 263 266 270 268 268 268 269 270 272 274
272 271 270 269 269 268 267 267 266 264 264 263 262 261 260 260 259 260 261 261 261 261 260 262 265 268 267 266 263 263 267 270 271 269 269 268 267 268
271 270 269 269 268 267 265 264 262 262 261 260 259 259 259 259 260 259 259 260 260 261 262 263 266 266 265 263 261 262 264 267 269 271 272 271 267 264
270 267 266 265 264 263 262 261 260 260 259 258 258 258 257 257 258 259 260 259 259 260 261 263 264 264 263 263 262 262 262 263 265 265 267 271 272 272

GFSNE_sfc_thetae_015.txt.gz
Theta_e
293 294 293 293 293 293 293 292 289 284 283 287 286 291 291 289 286 284 285 285 285 287 287 288 289 290 291 291 291 292 293 294 294 295 295 296 296 297
292 292 292 292 291 292 292 292 292 290 286 287 287 289 289 287 286 284 284 284 284 286 286 287 288 289 289 290 290 291 292 292 293 293 293 294 294 295
290 290 290 290 290 290 289 289 289 290 291 284 287 289 287 285 283 283 284 282 283 285 286 286 288 288 288 288 289 289 290 290 291 291 291 292 293 294
289 288 288 287 288 288 288 287 287 287 288 282 284 285 285 285 282 280 281 282 283 286 286 286 288 288 287 287 288 288 288 288 288 289 290 291 291 292
288 288 287 287 286 287 287 286 286 283 286 283 281 283 283 283 282 281 281 281 281 284 286 286 287 287 287 287 287 287 287 286 286 287 288 289 289 290
288 288 287 286 286 286 285 285 285 284 284 284 280 280 279 280 280 278 278 280 280 281 283 283 285 285 286 286 286 285 285 285 286 287 287 287 288 289
287 286 287 286 287 287 286 286 285 284 283 282 280 278 278 277 277 279 279 280 281 282 280 281 281 282 283 285 284 284 284 284 285 286 286 287 287 287
284 286 285 285 286 288 289 290 287 285 283 282 281 279 278 278 278 278 279 279 277 283 281 280 281 280 281 281 284 284 284 284 285 285 286 286 286 286
284 284 284 284 284 284 288 289 289 290 289 284 282 281 279 279 279 279 279 279 280 280 281 278 279 278 280 280 284 284 284 284 284 285 285 285 285 285
285 284 283 284 284 283 283 284 285 285 286 285 284 283 282 281 281 281 280 281 279 278 279 275 279 278 280 280 283 283 284 284 284 284 284 284 284 284
285 285 284 284 286 287 282 282 283 283 286 288 286 286 285 285 283 281 278 277 276 276 277 276 277 277 278 277 279 282 283 283 283 283 283 283 283 283
284 284 285 285 286 287 283 282 281 282 281 282 281 283 284 284 285 281 280 276 275 274 277 274 275 275 273 278 278 280 279 280 281 282 282 283 282 279
283 283 284 287 287 287 287 282 282 283 282 281 278 279 280 280 280 280 280 279 275 275 277 276 274 274 272 273 275 277 277 277 277 278 280 281 282 281
282 283 284 287 286 287 286 285 285 285 281 279 277 277 277 277 278 279 279 278 278 276 277 276 273 273 272 270 270 276 276 276 276 275 276 278 280 280
283 284 286 286 286 285 286 286 284 282 278 277 276 277 278 278 279 277 276 276 275 275 275 275 274 273 273 271 270 272 272 274 275 274 274 275 275 275
282 282 284 285 285 283 281 284 282 281 278 277 277 278 278 276 274 274 272 272 271 270 273 274 274 273 271 271 271 269 272 269 274 274 274 274 274 275
279 280 281 282 279 279 279 280 281 280 278 278 278 276 274 273 272 272 271 270 269 269 269 270 272 272 272 271 268 269 270 270 272 273 272 271 272 273
279 277 279 279 277 277 278 278 279 279 277 277 276 273 272 271 270 271 270 269 268 269 269 270 270 269 269 270 272 268 269 270 271 272 271 268 268 272
278 277 277 278 276 277 278 278 278 276 276 275 273 272 271 271 269 269 269 268 268 268 268 269 268 267 264 263 270 275 269 269 269 268 269 269 268 270
278 277 277 277 277 277 278 278 276 274 273 272 271 271 270 269 268 268 267 267 267 267 266 267 267 267 265 264 262 268 272 268 267 267 267 269 270 273
277 277 278 278 277 278 276 275 274 272 272 271 270 270 269 268 267 267 267 267 266 265 264 265 267 270 269 268 263 264 268 272 271 268 268 266 265 266
277 278 277 278 278 276 273 273 271 271 270 269 268 268 267 267 266 266 265 264 264 265 265 267 268 267 266 265 263 264 265 268 270 271 271 270 266 262
278 278 277 275 274 274 272 271 270 269 268 267 266 266 266 265 266 266 265 265 264 264 265 264 265 266 266 265 264 263 264 264 265 264 265 270 271 271

GFSNE_sfc_thetae_021.txt.gz
Theta_e
288 288 289 289 287 287 286 284 284 280 280 280 281 286 288 287 287 288 284 292 294 296 296 296 296 296 296 297 296 296 296 296 295 295 295 295 296 296
286 285 287 287 287 287 288 285 284 288 284 283 282 283 288 288 287 286 283 288 291 294 294 295 295 295 296 296 295 296 296 295 294 294 293 293 294 294
285 284 285 285 287 288 284 285 286 283 287 284 281 282 285 286 284 284 283 283 285 291 293 294 294 294 295 295 294 294 295 294 293 293 292 292 293 293
285 284 285 286 284 286 287 286 286 284 286 286 280 281 283 286 284 283 282 282 282 288 292 293 293 293 293 294 293 293 293 292 292 291 291 292 291 291
285 285 285 285 284 285 284 286 287 286 284 284 281 280 281 284 280 281 281 280 281 285 290 291 292 292 292 293 292 292 291 291 290 290 290 291 290 290
283 284 285 285 285 285 285 285 286 286 284 283 279 279 279 280 283 280 278 279 279 281 285 287 289 291 292 293 292 291 290 290 290 289 289 289 289 289
283 283 284 285 286 287 285 285 285 285 285 284 283 277 277 279 280 280 280 280 279 280 279 281 284 285 287 291 290 290 290 290 289 289 289 289 288 288
281 283 283 283 285 288 289 290 288 285 284 285 284 282 281 282 282 280 280 277 275 279 278 278 282 281 283 284 289 290 290 289 288 288 288 288 288 288
280 281 282 283 283 284 286 289 289 290 291 286 285 285 283 283 282 281 280 280 280 278 280 278 279 279 280 282 288 289 289 288 288 288 288 288 287 287
278 279 280 281 282 283 283 283 284 285 287 287 287 286 287 284 283 284 282 282 280 279 281 277 278 277 280 280 287 288 289 288 288 288 288 288 287 286
276 276 277 278 282 284 282 281 282 283 287 289 290 291 291 291 285 283 281 279 277 277 279 278 278 279 279 279 281 288 288 288 288 288 287 287 286 285
273 275 277 277 280 282 281 281 280 281 282 283 285 288 289 289 289 283 283 279 280 276 279 277 277 276 275 278 279 282 284 288 287 288 287 286 285 280
271 272 274 278 280 281 283 282 282 283 284 283 283 284 285 285 286 285 283 282 281 280 279 280 277 276 276 274 277 279 281 282 283 285 286 285 284 281
268 270 272 276 278 281 281 284 286 286 284 282 282 282 282 283 285 285 283 283 284 284 279 282 278 278 274 272 273 277 278 280 280 279 278 282 282 283
269 270 273 274 276 279 281 283 283 283 283 282 281 281 282 283 284 284 283 283 283 283 280 281 279 278 278 273 272 274 274 276 278 276 276 276 276 277
269 268 269 272 274 276 276 281 282 282 282 283 282 281 282 282 281 281 279 278 278 277 278 281 279 278 277 275 274 273 275 273 276 276 276 276 277 277
268 266 266 268 270 271 272 278 279 280 280 283 282 281 280 279 279 280 279 276 276 273 272 274 276 276 275 274 272 274 273 273 275 274 274 273 274 276
270 268 267 267 268 269 271 274 275 276 279 281 282 281 279 277 278 278 278 275 275 273 272 272 272 271 271 272 274 272 272 272 273 273 273 271 271 274
269 267 266 267 268 269 270 272 275 278 279 281 280 280 278 277 277 276 275 274 274 271 271 272 271 270 266 266 269 275 271 271 272 271 272 271 269 272
268 267 266 267 268 268 270 272 275 278 278 280 280 279 277 277 276 274 274 273 273 271 270 270 270 270 270 269 267 271 275 271 271 270 270 270 271 273
268 268 267 267 269 270 270 272 275 275 277 278 277 278 277 275 274 274 273 273 272 270 268 268 270 273 270 270 267 268 272 275 273 270 270 268 267 267
264 264 267 271 271 272 272 275 276 276 276 277 277 275 275 275 273 272 272 271 271 270 269 270 271 269 269 268 266 266 267 270 273 273 273 271 267 264
263 264 267 272 275 274 275 276 276 275 275 274 274 273 273 272 272 272 271 271 270 269 268 267 268 269 268 267 266 266 266 266 267 266 267 270 270 271

GFSNE_sfc_thetae_024.txt.gz
Theta_e
285 286 287 289 288 289 289 289 287 284 286 281 281 284 287 287 289 290 289 295 299 300 299 299 299 299 300 301 302 302 302 301 300 300 300 300 300 300
285 284 284 285 286 287 289 289 287 287 284 284 282 283 286 287 288 288 288 290 296 298 298 298 298 298 299 299 300 300 300 301 300 299 299 299 299 299
282 283 283 284 284 285 283 286 288 287 285 288 282 282 282 285 285 287 286 286 288 295 297 297 297 297 297 298 299 299 299 299 299 298 298 298 298 298
281 282 282 285 282 283 283 283 283 285 286 285 287 280 282 284 286 284 284 285 284 290 294 296 296 296 296 297 297 297 297 297 297 297 296 296 297 297
281 281 281 282 282 284 284 284 284 285 284 284 285 280 281 282 281 282 283 283 282 286 292 294 295 295 295 296 296 296 296 295 295 295 294 295 295 295
281 281 282 281 282 282 284 285 285 284 284 283 284 284 280 281 283 282 280 281 281 282 286 289 292 294 295 295 295 294 294 294 294 293 292 293 293 293
279 280 281 282 284 285 283 284 285 285 284 283 283 283 280 278 281 282 282 281 281 282 281 283 285 287 289 293 292 293 293 293 292 292 291 291 292 292
277 278 279 280 282 285 286 287 287 284 284 284 284 283 283 281 283 283 281 280 279 282 280 280 282 283 285 288 292 293 293 292 292 291 291 291 291 291
276 277 277 278 280 280 283 285 285 287 290 286 284 284 284 285 283 282 281 282 282 280 281 279 281 281 284 285 291 293 293 293 292 291 290 291 290 290
273 275 276 276 277 277 278 278 280 282 283 285 286 287 287 287 284 284 284 283 284 280 281 279 281 279 282 283 289 291 293 293 292 291 290 290 290 289
271 272 272 273 276 278 276 275 276 278 284 287 288 289 291 291 290 285 282 281 280 281 279 279 278 279 279 280 282 289 292 292 292 290 290 290 290 289
270 271 273 273 276 277 275 274 273 275 278 280 282 284 288 288 290 288 284 281 281 280 280 278 278 278 276 279 280 282 287 291 291 290 290 290 289 285
267 269 270 273 274 275 276 274 275 278 279 280 281 281 282 284 285 288 287 284 281 281 280 280 281 278 278 275 279 280 284 285 286 287 289 289 289 286
268 269 269 272 274 275 274 275 277 278 277 279 280 280 281 281 283 285 286 285 286 284 284 282 279 279 278 274 275 279 282 284 285 284 285 288 289 288
269 270 274 275 275 274 274 274 273 273 274 275 278 280 281 283 283 283 284 286 285 285 283 283 282 280 280 278 274 276 278 281 283 283 283 283 283 283
271 269 271 273 274 274 272 272 272 272 272 273 277 281 283 282 282 283 282 283 282 281 283 283 282 282 279 279 276 275 278 276 280 281 281 281 281 280
274 273 269 265 265 265 266 269 271 271 271 273 277 279 281 281 281 281 281 281 279 279 276 278 281 282 280 279 275 276 276 277 278 278 277 276 276 277
273 271 270 270 269 268 267 267 268 269 271 273 278 278 278 280 280 281 280 280 276 278 275 273 275 273 272 273 278 275 275 275 276 277 276 274 273 276
267 266 267 268 268 268 268 267 268 270 272 273 275 275 277 280 278 278 277 278 276 277 274 272 274 274 271 270 271 278 274 273 274 274 274 274 272 273
263 264 264 265 267 268 268 267 268 270 271 273 276 278 279 278 277 277 276 276 275 275 272 272 273 274 274 272 268 272 278 273 273 272 272 272 273 276
261 262 263 263 265 266 268 268 268 268 270 272 276 277 279 278 277 277 277 275 275 273 271 270 273 276 275 272 269 269 273 277 275 273 272 270 268 268
260 260 261 263 266 268 270 270 270 269 270 272 275 276 277 277 277 276 275 274 274 272 272 271 272 271 271 271 269 269 269 272 275 275 274 272 268 266
259 260 260 262 263 265 267 271 272 273 274 275 276 276 276 275 276 276 274 274 274 271 270 269 269 270 270 271 269 268 268 268 268 267 268 273 273 272

GFSNE_sfc_thetae_027.txt.gz
Theta_e
282 283 283 285 286 288 290 288 287 284 285 288 282 283 285 286 288 289 290 294 300 305 306 305 304 303 303 304 305 306 307 306 305 305 305 304 304 304
280 281 281 282 284 284 285 287 287 286 284 285 287 283 284 286 287 288 288 292 296 301 303 303 302 301 301 302 303 304 305 305 304 304 303 303 303 303
279 278 280 281 282 282 282 283 284 285 283 286 287 284 282 283 284 286 287 288 289 296 300 301 301 301 300 300 301 302 303 303 303 303 302 302 302 302
278 279 279 281 279 280 281 281 282 284 283 282 285 285 282 283 283 283 285 287 286 291 297 299 300 300 300 300 300 301 301 301 301 302 301 301 301 301
278 278 278 279 279 280 280 281 281 283 284 283 283 284 282 281 282 283 283 284 285 288 293 297 298 299 299 299 299 299 299 299 300 300 300 299 299 299
278 278 278 278 278 279 280 280 281 281 282 282 282 282 283 282 281 281 280 282 282 283 287 290 294 295 298 298 297 296 297 297 298 298 298 298 297 297
277 278 278 278 281 281 280 280 280 280 281 281 281 281 282 278 280 282 282 283 282 284 282 283 286 289 291 296 294 294 296 297 297 297 296 296 296 296
274 275 276 277 278 280 281 282 282 280 280 280 280 280 281 282 282 282 281 281 279 282 282 281 284 285 288 290 294 295 296 296 296 296 295 295 294 295
271 272 273 274 275 276 278 280 280 282 283 281 280 281 281 283 283 282 282 283 282 281 282 281 282 282 286 287 292 294 295 295 295 295 295 294 293 293
270 270 271 271 272 273 273 273 274 275 276 278 279 280 282 284 285 285 284 284 284 285 282 280 282 280 283 285 290 293 294 294 295 294 294 294 293 293
269 270 270 270 273 275 273 271 272 273 277 279 280 282 284 286 287 285 283 282 281 281 280 281 282 281 281 282 284 291 293 294 294 294 293 293 293 292
269 270 272 272 274 275 273 271 269 271 273 273 275 277 279 280 284 285 284 282 281 281 283 280 280 278 276 280 282 283 287 292 293 294 293 293 292 289
268 269 270 273 274 275 276 272 271 273 273 273 273 274 276 278 280 282 283 284 283 282 281 281 281 279 279 274 278 281 283 286 289 291 293 293 292 290
268 269 270 273 275 276 276 277 278 277 274 271 270 271 273 275 279 281 283 284 285 285 286 283 279 281 278 279 277 279 280 282 285 287 288 291 292 292
271 272 276 276 277 276 276 276 274 271 269 268 267 269 271 275 278 281 282 283 283 285 286 284 283 281 281 278 278 277 277 280 283 284 286 286 287 287
273 272 273 275 276 275 273 273 272 271 270 269 269 270 271 272 273 276 280 281 280 281 285 286 284 283 280 280 280 276 279 278 282 283 284 285 286 287
274 271 270 270 270 271 268 268 268 268 267 268 268 269 270 270 271 275 280 280 279 279 280 282 283 283 283 281 279 279 277 279 280 282 282 281 283 285
268 263 263 264 265 266 266 267 269 269 268 269 268 268 269 270 272 275 280 280 279 279 279 278 278 279 274 275 282 278 277 278 278 280 280 279 279 281
258 260 261 262 263 263 264 264 266 269 270 269 269 269 271 271 272 276 277 279 279 279 279 274 277 276 274 273 269 281 276 277 276 277 278 278 277 276
258 258 259 260 261 262 263 265 267 268 268 268 269 270 271 272 275 276 277 277 277 277 277 273 276 276 275 273 271 269 280 276 275 276 276 277 278 279
258 258 259 259 260 261 262 264 266 268 268 268 268 269 271 272 276 277 277 277 277 277 274 270 274 277 278 274 270 269 275 280 278 276 275 273 271 272
259 259 259 259 260 261 262 263 265 267 269 268 268 270 271 274 274 276 277 276 276 276 273 273 275 275 273 273 269 266 269 274 278 279 278 275 271 267
259 260 260 260 261 262 263 263 264 265 267 269 272 272 273 274 276 276 275 276 275 275 272 270 271 273 273 272 270 269 269 270 271 271 272 275 275 275

GFSNE_sfc_thetae_030.txt.gz
Theta_e
278 279 280 281 283 284 285 284 283 282 283 286 284 285 284 285 286 286 287 291 296 299 304 309 309 308 308 308 308 308 308 309 309 309 308 308 308 307
278 277 278 279 280 281 282 282 283 283 281 284 286 285 286 286 286 286 286 290 293 295 300 304 307 306 306 306 306 306 306 308 308 308 307 307 307 306
276 277 277 278 278 279 280 281 281 281 280 282 285 285 285 286 286 285 286 286 287 293 295 300 303 305 305 305 304 304 304 306 307 307 306 306 306 305
276 276 276 279 277 278 278 278 279 280 279 278 281 282 282 283 285 284 285 286 285 290 293 296 299 302 303 303 303 303 303 304 305 306 305 305 304 304
276 276 276 276 276 277 277 277 278 280 280 279 279 282 282 281 282 282 283 284 285 288 292 293 295 299 301 302 301 300 300 301 302 302 303 304 303 303
275 275 276 276 276 276 276 277 278 278 279 278 279 280 281 282 279 280 281 281 283 284 287 289 291 294 298 300 299 298 298 299 300 301 300 301 301 302
273 273 274 275 277 278 277 277 277 276 277 277 278 279 279 279 280 281 280 281 282 283 283 283 285 287 290 296 296 296 297 298 299 299 299 299 299 299
270 271 272 272 274 276 277 278 279 277 275 276 278 278 279 280 281 281 281 281 279 281 282 283 283 283 286 289 294 297 297 297 298 298 298 298 298 298
270 270 270 271 271 271 273 275 275 277 279 277 275 276 276 279 280 280 281 281 281 283 281 280 281 281 284 286 292 295 296 296 297 297 297 297 297 296
269 269 269 270 270 271 271 271 272 273 274 274 274 274 275 276 276 278 279 280 282 284 281 279 280 281 282 283 290 293 295 296 296 296 297 296 296 295
269 270 270 269 272 274 272 271 272 273 276 277 278 279 280 280 281 278 276 277 277 280 284 281 282 281 280 282 283 290 293 294 295 295 296 296 296 295
269 270 272 272 275 276 273 271 270 271 272 271 272 274 276 275 278 277 276 273 275 277 283 280 281 277 274 279 282 283 286 292 294 295 295 295 295 292
269 270 271 274 275 276 277 273 272 274 274 273 273 273 274 274 274 275 276 276 274 275 282 283 281 281 279 275 276 282 283 285 288 291 295 295 295 293
270 271 271 275 276 278 278 279 279 278 274 271 270 269 270 270 272 273 274 276 278 279 280 283 282 281 279 278 277 277 281 283 285 287 289 292 295 294
272 274 276 277 277 276 276 277 276 274 272 270 270 270 271 271 272 272 273 274 275 277 279 283 283 283 282 279 278 273 275 278 283 284 286 287 289 290
274 273 272 272 272 272 270 271 271 270 269 269 269 270 271 271 270 271 269 270 270 271 276 282 283 284 281 282 279 272 277 275 279 282 284 286 287 289
270 266 262 262 263 264 265 266 266 266 267 268 268 268 268 268 269 270 270 269 268 268 271 280 283 284 284 283 280 279 276 277 278 280 282 282 284 286
262 257 258 259 260 261 261 262 263 264 265 266 268 268 267 268 268 269 269 269 268 270 271 278 280 281 281 282 285 280 279 277 279 280 281 280 281 284
254 256 257 258 259 260 260 261 261 263 265 267 267 268 268 268 268 268 270 270 270 272 274 280 279 279 276 273 271 285 279 277 279 279 280 281 280 281
250 256 257 258 258 259 260 260 261 262 263 265 267 268 267 268 268 269 270 272 275 274 274 278 278 278 277 274 273 269 282 278 277 276 278 280 281 283
257 257 258 259 259 259 260 260 261 262 264 265 267 268 268 268 268 269 271 273 276 277 276 273 277 280 280 276 273 268 273 282 280 277 278 277 274 274
257 257 258 259 259 260 260 261 261 263 263 264 265 267 269 269 269 270 272 273 274 276 276 273 274 276 275 275 272 266 270 276 281 281 280 278 273 270
256 257 258 259 259 260 261 261 262 263 264 264 265 265 267 267 270 273 274 275 275 275 273 272 273 274 274 274 270 270 271 273 273 272 273 279 275 276

GFSNE_sfc_thetae_033.txt.gz
Theta_e
280 280 280 281 282 282 283 283 282 279 281 286 288 291 292 293 294 294 293 292 294 297 298 300 302 306 312 313 313 312 312 311 310 310 311 311 311 310
279 279 279 280 280 281 282 282 282 280 278 284 285 288 289 290 291 292 292 291 293 294 296 298 300 304 309 310 310 310 310 310 310 309 310 310 310 309
278 278 278 279 279 280 280 280 280 280 279 281 284 285 285 286 288 290 290 290 291 292 294 295 297 301 304 307 307 308 308 309 308 309 310 310 309 309
276 277 277 278 277 278 279 278 279 280 279 277 280 282 283 285 286 286 287 288 289 290 293 294 296 297 299 303 305 305 306 306 306 307 308 310 308 308
275 275 275 275 275 277 277 277 278 278 279 278 277 281 282 284 284 285 286 287 287 289 291 293 294 295 297 299 301 303 302 302 303 303 304 306 307 308
274 274 274 273 273 274 275 275 277 277 278 277 277 278 279 282 283 282 282 285 285 286 288 289 290 292 294 296 298 298 300 301 301 302 302 303 304 305
273 273 273 274 275 275 275 275 275 275 275 276 276 277 277 277 279 282 282 284 285 286 286 287 287 289 291 292 293 295 298 300 300 300 300 301 301 302
271 272 272 272 273 274 275 276 275 273 272 273 274 274 275 277 279 279 279 278 278 286 285 285 287 286 288 289 291 294 296 299 299 299 299 299 300 300
270 270 270 271 271 271 272 274 274 275 276 274 273 273 273 274 275 275 275 276 276 280 281 281 286 284 287 287 290 291 294 296 298 298 298 298 298 298
270 270 270 270 271 272 272 272 273 274 274 275 275 275 275 276 276 276 276 276 277 279 280 276 282 283 287 287 289 290 292 294 296 297 297 297 298 297
270 271 271 271 272 275 274 273 273 274 276 278 278 279 279 279 279 277 274 273 272 275 279 279 281 282 284 286 287 289 290 292 294 295 297 297 297 297
271 271 273 274 276 277 274 273 271 272 274 274 274 276 277 277 278 277 275 272 272 271 276 275 277 278 280 285 285 286 287 290 292 294 295 296 296 295
272 272 272 275 276 277 278 275 274 276 276 275 275 275 276 276 276 276 276 275 272 272 276 276 276 277 277 281 283 284 285 286 288 290 294 295 296 295
271 273 273 276 278 277 276 276 277 276 275 274 273 273 273 273 274 275 275 276 276 275 276 276 274 274 276 277 279 283 284 285 286 287 289 292 294 295
274 275 275 274 274 271 272 273 272 270 270 269 269 270 272 274 274 274 275 275 275 275 275 275 274 274 274 274 276 282 281 282 284 285 287 288 289 291
272 268 269 268 268 268 266 267 267 268 267 266 267 269 271 271 270 272 271 271 271 271 274 274 274 273 272 275 278 278 282 280 282 284 285 286 287 289
265 262 261 261 261 262 263 263 264 265 265 265 266 266 267 269 269 271 270 270 268 268 269 272 274 274 274 275 275 280 281 280 282 282 283 283 285 286
261 257 258 259 259 260 260 261 262 263 264 264 265 265 266 267 268 270 270 269 268 269 269 270 271 271 273 275 279 280 281 281 282 282 282 281 282 285
257 257 257 258 259 260 260 261 261 262 263 264 264 265 266 267 268 268 269 269 269 270 270 272 272 272 269 270 281 285 280 281 281 280 281 281 281 283
255 256 257 258 259 259 260 260 261 262 262 263 264 265 266 267 268 268 268 268 269 270 271 275 273 273 274 276 278 279 284 282 280 279 280 282 283 285
256 256 258 258 259 260 260 260 261 261 262 263 264 265 265 266 267 269 269 269 269 270 271 275 278 279 280 281 277 276 277 283 282 281 280 280 279 279
255 255 256 257 258 259 260 260 261 261 262 263 264 265 265 266 266 267 268 270 272 273 274 277 278 279 278 277 276 272 274 279 283 282 282 282 277 274
254 255 255 256 257 258 259 259 259 260 262 263 265 265 265 264 266 267 268 269 271 273 275 274 275 276 276 276 273 272 273 275 276 272 270 278 278 277

GFSNE_sfc_thetae_036.txt.gz
Theta_e
283 283 283 283 284 284 284 284 282 278 280 285 285 291 292 291 290 291 292 292 294 294 295 298 299 301 302 304 307 309 316 316 314 313 312 312 312 313
282 282 282 282 282 283 283 283 283 281 279 283 285 287 288 288 289 289 290 291 292 292 293 295 296 298 300 301 304 308 314 314 313 312 312 311 311 312
281 280 280 281 281 281 281 281 281 281 279 282 284 285 285 285 287 288 289 290 291 291 292 293 294 295 297 299 301 303 310 312 311 311 312 311 311 311
278 278 278 279 278 279 279 279 279 280 279 278 280 281 282 284 285 285 286 287 289 290 291 292 292 293 295 297 298 300 303 306 307 309 310 310 310 311
278 277 277 277 276 277 277 276 277 277 278 278 278 280 281 283 282 284 284 286 288 289 290 290 291 292 293 294 296 298 298 300 304 304 305 307 308 309
277 277 276 276 275 275 275 275 276 276 276 276 276 277 278 280 282 281 281 285 285 287 289 289 290 291 291 292 293 294 296 298 300 303 303 303 304 305
276 276 276 275 275 275 275 275 274 274 274 274 274 275 275 276 276 278 278 281 282 283 285 287 289 290 291 291 291 292 294 296 298 299 301 301 301 302
274 274 274 275 274 275 275 276 276 274 273 273 273 272 273 275 276 276 275 275 274 281 281 281 284 285 289 290 291 291 291 293 296 297 299 300 300 300
273 273 273 273 274 273 274 275 275 276 277 275 273 273 273 274 275 274 274 275 275 278 279 277 281 281 284 285 288 290 290 291 293 295 296 299 299 299
273 273 272 273 273 273 273 274 274 275 275 276 276 276 276 277 277 276 276 277 278 279 279 275 279 280 283 286 287 287 289 290 291 293 294 296 298 298
273 273 273 273 275 276 276 274 275 276 278 279 279 280 280 280 280 278 276 275 273 275 278 276 277 277 279 280 283 285 288 289 290 292 293 294 295 297
274 274 276 275 277 278 276 275 274 275 276 277 277 278 279 279 279 278 277 273 273 273 277 275 275 276 273 279 281 284 286 289 290 289 292 293 294 294
274 274 275 276 277 278 277 275 274 276 275 275 275 276 277 277 278 278 278 276 274 273 277 277 275 275 275 274 277 280 282 283 288 288 289 291 293 294
273 274 275 276 275 275 274 274 275 274 272 272 272 272 273 274 275 276 277 277 278 276 277 277 274 273 273 272 272 276 278 281 285 286 287 289 291 293
275 275 274 273 272 271 271 271 270 269 269 268 268 269 271 272 273 273 274 275 275 276 277 277 275 274 274 271 271 273 273 276 281 285 286 286 288 290
274 270 270 269 269 269 267 268 267 267 266 266 267 268 270 270 270 271 271 272 272 272 275 276 275 274 272 273 272 271 273 273 279 283 285 286 288 289
271 268 266 265 265 266 266 266 266 266 266 266 266 266 267 268 269 271 271 271 270 270 271 274 275 275 274 273 270 272 272 274 275 280 283 283 286 288
267 264 263 264 263 264 264 264 265 265 266 265 265 266 266 267 268 269 271 270 270 270 271 272 273 273 273 273 275 272 272 273 275 279 283 282 283 286
263 263 262 263 263 263 264 264 263 265 265 265 265 266 266 267 267 268 269 270 270 270 271 273 273 272 270 268 274 279 273 274 276 278 282 282 281 284
261 261 261 262 262 262 263 263 263 263 264 264 265 265 266 266 266 267 268 268 269 270 271 272 273 273 272 273 273 278 282 276 278 279 281 282 284 286
261 260 261 261 261 261 262 262 262 262 263 263 264 265 266 266 266 266 267 267 268 269 270 272 275 277 278 280 275 276 280 283 283 282 282 280 279 281
260 259 260 260 260 260 261 261 261 262 262 263 264 265 266 267 266 265 266 267 267 269 270 273 276 279 278 277 277 278 277 280 282 280 281 282 280 278
259 259 259 259 259 259 260 260 260 261 261 262 263 264 265 265 266 266 266 267 268 268 270 271 274 277 276 276 275 275 275 277 277 274 273 278 279 279

GFSNE_sfc_thetae_042.txt.gz
Theta_e
278 278 279 279 280 279 279 279 276 273 274 276 277 281 283 283 284 283 283 286 289 290 290 291 292 294 295 296 298 299 300 301 304 307 308 310 312 317
278 277 277 278 277 277 277 278 277 275 273 277 277 279 280 281 281 281 281 284 285 287 288 289 290 292 293 294 296 297 298 299 300 303 306 307 310 314
276 276 276 277 275 275 275 275 275 274 272 274 276 277 277 277 278 279 280 279 280 284 286 288 290 291 292 293 294 295 296 297 298 299 301 305 306 310
276 276 275 278 275 274 274 273 273 273 272 271 274 274 274 276 276 276 278 279 279 282 286 286 287 288 289 290 291 292 293 294 295 296 297 300 303 305
276 276 275 275 274 274 273 272 273 274 273 272 272 274 274 274 274 275 276 276 279 281 282 283 283 284 286 287 289 290 289 291 293 293 294 296 298 300
277 276 275 275 274 273 273 273 274 273 272 272 271 272 272 274 274 273 273 275 275 277 279 280 281 282 283 284 285 285 286 288 290 291 293 294 295 296
275 276 275 275 277 277 275 274 273 272 271 271 271 271 271 272 272 274 273 274 274 275 275 276 277 277 278 281 281 283 285 286 287 288 289 290 292 293
274 275 274 275 275 277 278 278 277 273 271 270 271 272 272 273 274 273 273 272 270 276 274 275 277 276 277 278 282 284 284 285 285 287 288 289 289 290
274 275 274 275 274 274 275 277 277 278 279 276 273 273 273 274 274 273 273 273 273 275 275 274 276 276 277 279 282 283 283 284 284 285 286 287 288 290
274 274 274 273 274 274 274 274 275 276 276 277 276 276 276 277 277 277 276 276 277 277 278 271 275 274 276 277 281 282 283 283 284 284 284 285 287 288
275 274 274 273 276 278 276 273 273 273 276 277 278 279 279 278 277 274 272 271 270 272 276 273 274 274 275 275 277 281 282 282 282 282 283 283 284 284
273 275 277 276 278 279 276 272 270 270 271 272 270 271 273 273 275 274 273 270 271 270 275 273 273 274 271 275 276 276 276 279 280 281 281 282 282 280
271 272 274 277 278 279 278 272 270 274 268 265 266 267 268 269 270 272 273 271 268 268 273 273 271 271 271 271 273 275 275 275 276 277 279 280 280 280
270 273 273 277 278 277 276 275 275 272 263 263 264 264 266 267 269 269 271 271 272 271 272 273 270 270 269 268 268 273 274 275 275 275 275 278 279 279
274 274 277 277 276 273 272 273 270 264 262 259 263 265 267 268 268 268 269 270 270 271 272 272 271 272 271 269 268 270 271 273 274 274 274 274 274 275
274 271 271 274 273 271 267 268 267 266 265 264 264 266 266 266 266 267 266 267 266 266 270 272 272 273 271 271 270 269 271 270 272 273 274 274 274 275
271 265 261 261 261 262 262 263 264 264 263 264 264 263 264 265 264 266 265 265 264 264 266 269 271 273 273 272 270 270 270 271 272 273 273 272 273 274
267 257 257 259 261 261 260 261 263 263 263 263 262 263 263 263 263 264 265 264 264 264 265 266 267 267 267 269 274 270 271 271 273 274 274 272 271 274
260 256 260 260 259 260 259 260 262 262 261 262 262 262 262 262 262 262 263 264 263 264 264 265 265 265 263 263 269 276 272 273 273 273 275 273 272 274
255 258 259 259 257 257 258 260 261 259 259 259 259 259 260 260 261 261 262 262 262 263 263 264 265 266 265 265 266 269 276 273 274 274 275 277 276 279
259 257 258 257 259 257 254 257 255 256 255 255 256 257 259 260 260 261 261 262 263 263 262 263 266 270 270 270 268 269 273 280 279 277 278 274 273 274
256 256 256 256 256 256 251 255 253 252 252 250 253 254 258 259 260 260 260 261 262 263 263 265 267 267 267 268 268 270 272 275 279 279 278 279 276 273
258 258 257 257 256 253 251 253 251 254 251 249 250 255 257 258 258 259 260 262 263 262 263 263 264 265 266 268 269 270 271 269 271 271 273 276 278 279

GFSNE_sfc_thetae_045.txt.gz
Theta_e
277 277 277 278 278 277 278 277 275 271 272 274 275 278 278 279 280 280 279 282 284 285 286 288 289 290 292 294 295 296 297 298 299 300 301 303 305 309
277 276 276 277 276 276 276 276 275 273 271 274 274 276 277 278 279 278 278 280 281 283 284 285 287 289 290 291 292 294 296 297 297 298 299 300 302 303
276 276 276 276 275 274 274 274 274 273 271 273 274 275 275 275 276 276 277 276 277 281 283 284 285 286 287 287 288 290 292 293 295 296 297 297 299 300
276 276 275 277 274 274 273 273 272 272 271 271 273 273 273 274 274 274 276 277 276 279 283 283 284 284 285 285 286 287 288 289 290 291 294 296 296 298
276 275 275 275 274 273 273 272 272 274 272 272 271 273 273 274 273 274 275 275 277 280 281 282 282 283 283 284 284 285 284 285 286 288 290 292 293 295
276 276 275 274 274 273 273 273 274 273 273 272 271 272 273 274 274 273 273 275 275 277 279 279 281 281 282 283 283 282 283 284 286 287 288 289 290 291
275 276 275 275 277 277 275 274 273 272 272 271 271 272 272 273 272 274 273 274 275 276 275 276 277 277 278 280 280 281 283 285 285 285 286 287 287 289
274 275 275 274 275 278 278 278 278 273 267 269 272 273 273 273 274 274 273 272 271 277 275 275 277 276 277 278 281 282 283 284 284 285 285 285 286 287
274 274 275 275 274 274 275 277 277 278 279 277 273 273 272 273 273 273 273 273 272 275 274 273 275 274 276 278 281 282 283 283 283 284 285 285 285 285
274 274 274 274 274 274 273 273 274 275 276 276 274 274 274 275 273 273 272 271 272 273 275 270 274 274 276 276 280 282 282 282 283 283 283 283 283 284
274 274 274 273 276 278 275 273 272 273 276 277 277 277 276 276 275 271 267 267 267 270 273 271 273 272 274 274 277 280 281 281 281 281 282 283 283 283
272 274 276 276 278 279 276 271 268 270 272 269 268 270 271 271 273 271 269 266 266 264 270 268 269 270 268 272 275 274 275 278 280 280 281 281 282 279
270 271 273 277 278 278 279 274 269 274 265 262 264 266 267 268 269 270 270 268 266 265 270 271 269 268 268 268 271 273 273 274 275 276 279 280 280 280
269 272 273 277 278 278 278 277 277 274 260 259 261 263 265 266 268 268 269 269 270 269 270 270 268 268 267 266 267 271 272 273 274 274 275 277 279 279
274 274 277 278 279 277 274 275 272 264 260 257 261 264 266 267 267 267 268 268 268 269 270 270 269 269 269 267 267 269 270 271 273 273 274 274 274 275
275 272 274 276 275 274 268 269 268 265 264 263 264 265 266 265 264 266 264 265 264 264 268 270 270 269 267 268 269 268 270 269 272 272 273 274 275 275
269 261 262 265 264 265 263 263 264 264 262 263 263 263 263 263 263 264 264 263 262 262 264 266 268 269 268 268 265 267 268 269 271 272 272 272 274 275
273 270 265 266 265 265 262 262 263 263 263 262 258 260 261 261 261 262 263 262 261 262 263 264 265 264 265 266 271 267 269 269 271 273 273 272 272 275
274 274 265 264 264 264 262 262 262 262 261 258 259 259 260 259 259 260 261 261 261 261 262 264 263 263 261 260 266 273 269 269 270 270 271 272 273 275
266 261 263 262 262 262 262 260 261 259 257 256 256 254 254 257 258 258 259 259 260 260 261 263 263 264 263 262 263 267 274 271 271 271 274 276 279 281
261 261 261 261 261 260 259 258 257 256 253 250 249 249 252 253 257 257 259 259 259 260 260 261 264 267 267 267 264 265 270 276 276 275 275 273 270 270
257 258 259 260 259 258 258 257 255 254 250 248 249 249 251 252 257 257 258 257 258 260 261 263 264 264 264 263 263 265 268 271 273 275 277 277 273 270
258 253 257 258 258 258 257 256 255 255 251 248 247 247 249 251 254 257 256 257 258 260 260 261 262 263 262 263 264 266 265 266 267 267 270 275 276 277

GFSNE_sfc_thetae_048.txt.gz
Theta_e
277 277 277 277 277 277 277 277 275 271 271 273 274 276 276 277 278 278 277 279 283 284 285 286 287 288 289 290 291 292 294 295 296 297 298 299 300 301
276 276 276 276 276 276 276 276 275 273 270 274 273 274 276 277 278 277 276 280 280 282 283 284 286 287 287 287 289 290 291 292 293 294 295 296 298 300
276 276 276 276 274 274 274 274 274 273 271 273 273 274 274 274 275 275 276 276 276 280 282 284 285 285 285 286 287 287 288 289 290 291 292 293 295 297
276 275 275 277 274 274 273 273 272 272 271 270 273 273 273 274 274 274 276 277 276 279 282 283 283 284 284 285 285 286 286 286 286 287 288 290 292 294
276 275 275 275 274 273 273 272 272 274 272 271 271 273 273 274 274 275 275 276 277 280 281 282 282 283 283 284 284 284 284 284 285 286 287 289 290 291
276 276 275 274 274 273 273 273 273 272 272 271 271 272 273 274 275 273 273 275 275 277 279 280 281 281 282 282 283 282 282 283 285 286 286 286 287 288
275 276 275 275 277 277 275 273 273 271 272 271 271 272 272 273 272 273 272 273 274 275 275 276 276 276 277 280 280 281 282 284 284 285 285 286 286 287
274 274 275 274 276 279 279 280 278 270 260 267 272 273 272 272 272 272 272 270 268 274 272 272 274 274 276 276 280 282 282 283 284 284 285 285 286 286
274 274 275 275 274 273 276 278 278 278 279 277 274 272 272 272 273 271 271 270 269 271 271 269 273 273 275 277 280 281 282 282 283 284 285 284 284 284
274 274 274 274 274 273 273 272 273 274 275 276 275 274 274 275 274 272 270 268 269 270 272 267 270 270 273 273 277 279 281 282 283 283 283 283 283 284
274 274 273 273 275 278 275 271 273 274 278 279 279 278 277 277 274 270 264 264 264 266 269 268 269 268 271 271 274 278 279 279 280 280 281 282 282 283
273 274 276 275 277 278 275 273 270 271 272 267 268 270 271 270 272 270 268 263 264 263 269 266 267 268 265 270 272 272 273 276 278 279 280 280 281 278
271 271 273 277 278 279 280 276 274 273 267 262 262 265 267 267 268 269 269 267 265 264 268 269 266 266 266 266 269 271 272 273 273 274 277 278 279 279
270 272 272 277 278 279 279 279 280 277 260 257 258 263 264 265 267 268 268 268 269 268 269 269 266 265 265 264 265 269 270 272 273 273 274 276 278 279
276 275 277 278 279 279 280 279 274 266 260 257 259 263 265 267 267 266 267 267 267 267 268 268 267 267 267 264 264 266 267 269 271 272 273 273 273 274
276 272 274 278 278 276 271 273 270 267 266 262 263 265 266 265 263 265 263 263 262 263 267 268 268 267 265 265 265 264 266 265 269 270 272 273 274 275
269 260 261 265 267 268 265 265 267 266 264 263 261 262 263 263 262 263 262 261 260 261 262 264 267 267 267 266 263 264 265 266 269 270 271 271 272 274
275 270 268 267 267 268 268 266 265 264 264 263 261 261 261 260 260 260 260 259 259 260 261 262 263 263 263 263 269 266 266 267 269 270 270 269 269 273
272 269 269 267 266 267 267 265 264 264 264 262 261 260 260 258 257 257 258 259 258 259 260 261 261 262 259 258 263 271 267 267 268 269 271 271 271 273
257 254 257 261 263 265 265 264 263 261 261 260 259 257 255 252 255 255 256 256 257 258 258 260 262 262 261 260 261 264 271 269 269 271 269 273 275 279
250 251 252 255 259 259 260 260 258 258 257 257 255 253 253 248 250 254 256 257 257 257 256 259 263 266 264 264 261 262 266 272 272 270 270 270 269 269
248 248 251 253 256 256 255 255 255 255 257 256 254 253 252 248 252 253 255 255 256 256 258 261 262 262 261 261 260 261 264 267 270 272 274 274 270 267
251 250 251 252 254 255 255 255 255 256 257 256 254 252 250 245 248 254 255 254 255 256 257 259 260 261 260 260 260 261 262 263 264 265 268 273 274 274